TimeCDT,TemperatureF,Dew PointF,Humidity,Sea Level PressureIn,VisibilityMPH,Wind Direction,Wind SpeedMPH,Gust SpeedMPH,PrecipitationIn,Events,Conditions,WindDirDegrees,DateUTC
12:03 AM,42.8,41.0,93,29.92,10.0,SSW,4.6,-,0.00,Rain,Light Rain,200,2013-05-04 05:03:00
12:07 AM,42.8,41.0,93,29.92,10.0,South,4.6,-,0.00,Rain,Light Rain,180,2013-05-04 05:07:00
12:23 AM,42.8,41.0,93,29.91,8.0,SSW,4.6,-,0.00,Rain,Light Rain,210,2013-05-04 05:23:00
12:33 AM,42.8,41.0,93,29.93,8.0,South,8.1,-,0.00,Rain,Light Rain,170,2013-05-04 05:33:00
12:39 AM,42.8,41.0,93,29.92,8.0,SSW,3.5,-,0.00,Rain,Light Rain,200,2013-05-04 05:39:00
12:50 AM,42.8,41.0,93,29.92,8.0,South,4.6,-,0.01,Rain,Light Rain,180,2013-05-04 05:50:00
12:53 AM,43.0,41.0,93,29.92,9.0,Variable,4.6,-,0.01,Rain,Light Rain,0,2013-05-04 05:53:00
1:53 AM,42.1,39.9,92,29.88,9.0,WSW,3.5,-,0.02,Rain,Light Rain,240,2013-05-04 06:53:00
2:50 AM,42.8,39.2,87,29.89,4.0,Calm,Calm,-,0.09,Rain,Rain,0,2013-05-04 07:50:00
2:53 AM,42.1,39.9,92,29.88,4.0,Calm,Calm,-,0.09,Rain,Rain,0,2013-05-04 07:53:00
3:03 AM,42.8,39.2,87,29.88,4.0,SSW,3.5,-,0.02,Rain,Rain,210,2013-05-04 08:03:00
3:29 AM,42.8,41.0,93,29.88,3.0,Calm,Calm,-,0.09,Rain,Rain,0,2013-05-04 08:29:00
3:49 AM,42.8,41.0,93,29.88,5.0,Calm,Calm,-,0.16,Rain,Light Rain,0,2013-05-04 08:49:00
3:53 AM,42.1,41.0,96,29.88,8.0,Calm,Calm,-,0.16,Rain,Light Rain,0,2013-05-04 08:53:00
4:03 AM,42.8,41.0,93,29.89,10.0,Calm,Calm,-,0.00,Rain,Light Rain,0,2013-05-04 09:03:00
4:44 AM,42.8,41.0,93,29.89,2.0,SSW,6.9,-,0.00,,Overcast,200,2013-05-04 09:44:00
4:53 AM,42.1,39.9,92,29.89,2.5,SSW,6.9,-,0.00,Rain,Light Rain,210,2013-05-04 09:53:00
5:01 AM,41.0,39.2,93,29.89,6.0,South,4.6,-,0.00,,Overcast,180,2013-05-04 10:01:00
5:49 AM,41.0,37.4,87,29.90,10.0,SSW,6.9,-,0.00,,Overcast,200,2013-05-04 10:49:00
5:53 AM,41.0,37.9,89,29.91,10.0,SSW,6.9,-,0.00,,Overcast,210,2013-05-04 10:53:00
6:53 AM,41.0,39.0,93,29.92,10.0,SSW,5.8,-,N/A,,Overcast,210,2013-05-04 11:53:00
7:53 AM,41.0,37.9,89,29.94,10.0,SSW,6.9,-,N/A,,Overcast,210,2013-05-04 12:53:00
8:53 AM,42.1,39.0,89,29.94,10.0,WSW,6.9,-,N/A,,Overcast,250,2013-05-04 13:53:00
9:34 AM,44.6,37.4,76,29.94,10.0,Variable,5.8,-,N/A,,Mostly Cloudy,0,2013-05-04 14:34:00
9:53 AM,44.1,37.0,76,29.95,10.0,WSW,9.2,-,N/A,,Mostly Cloudy,240,2013-05-04 14:53:00
10:53 AM,45.0,36.0,71,29.96,10.0,WSW,5.8,-,N/A,,Overcast,240,2013-05-04 15:53:00
11:53 AM,46.9,37.0,68,29.96,10.0,Variable,6.9,-,N/A,,Overcast,0,2013-05-04 16:53:00
12:53 PM,46.9,37.0,68,29.96,10.0,Variable,3.5,-,N/A,,Overcast,0,2013-05-04 17:53:00
1:25 PM,48.2,35.6,62,29.95,10.0,Calm,Calm,-,N/A,,Overcast,0,2013-05-04 18:25:00
1:53 PM,50.0,37.0,61,29.94,10.0,Variable,3.5,-,N/A,,Overcast,0,2013-05-04 18:53:00
2:53 PM,51.1,37.9,61,29.94,10.0,West,4.6,-,N/A,,Overcast,270,2013-05-04 19:53:00
3:53 PM,53.1,37.9,57,29.95,10.0,Calm,Calm,-,N/A,,Overcast,0,2013-05-04 20:53:00
4:53 PM,53.1,37.9,57,29.94,10.0,Calm,Calm,-,N/A,,Overcast,0,2013-05-04 21:53:00
5:53 PM,54.0,39.0,57,29.95,10.0,Variable,4.6,-,N/A,,Mostly Cloudy,0,2013-05-04 22:53:00
6:53 PM,50.0,39.0,66,29.95,10.0,NNE,3.5,-,N/A,,Partly Cloudy,20,2013-05-04 23:53:00
7:53 PM,48.0,39.0,71,29.96,10.0,ENE,6.9,-,N/A,,Clear,60,2013-05-05 00:53:00
8:53 PM,45.0,39.9,82,29.98,10.0,Calm,Calm,-,N/A,,Clear,0,2013-05-05 01:53:00
9:53 PM,45.0,41.0,86,29.96,10.0,ENE,5.8,-,N/A,,Clear,60,2013-05-05 02:53:00
10:53 PM,42.1,41.0,96,29.96,10.0,Calm,Calm,-,N/A,,Clear,0,2013-05-05 03:53:00
11:53 PM,42.1,39.9,92,29.96,10.0,NE,3.5,-,N/A,,Partly Cloudy,40,2013-05-05 04:53:00